Гродзянка

Беларусь     53°32′51″N   28°44′45″E
темп.,
°C
ветер,
м/с
пор.,
м/с
влажн.,
%
обл.,
%
осадки,
мм/ч
давл.,
гПа
погр.,
м
15 мая, сб
сб1500:00+12ю229294 0.1 100541
03:00+11ю2495100 0.1 1005105
06:00+10ююв2496100 0.0 1005120
09:00+14юз248889 0.1 1006444
12:00+17ююз347495 0.4 1006813
15:00+18ююз467194 2.2 10061278
18:00+17зюз468487 2.6 1006658
21:00+13зюз359495 4.3 100782
16 мая, вс
вс1600:00+11з3896100 0.1 1008182
03:00+10зюз3798100 0.1 1009164
06:00+10зюз259711 0.0 1011111
09:00+14юз35815 0.0 1011402
12:00+19ююз456041 0.0 10111456
15:00+18ююз356961 0.2 1011773
18:00+19юв3564100 0.0 1010686
21:00+15вюв3983100 0.0 1010196
17 мая, пн
пн1700:00+14юв41185100 0.1 1009262
03:00+13юв31094100 0.8 1009227
06:00+12юв31095100 0.2 1008236
09:00+15юв3887100 0.3 1008372
12:00+19юв3571100 0.1 1007606
15:00+16з4585100 0.9 1006312
18:00+14сз3692100 2.2 1004321
21:00+13з5798100 4.8 1003370
18 мая, вт
вт1800:00+12сз3996100 0.8 1001347
03:00+12з3798100 1.3 1001291
06:00+11зюз2698100 0.0 1001183
09:00+14зюз2391100 0.0 1001319
12:00+13ююз3697100 0.4 1002460
15:00+18зюз467274 1.9 10031187
18:00+16з5883100 1.3 1003609
21:00+12з3893100 3.5 1005323
19 мая, ср
ср1900:00+11з31094100 0.3 1006375
03:00+9з410979 0.3 1006346
06:00+8з399824 0.0 1007311
09:00+12зсз57788 0.0 1008755
12:00+14з5767100 0.1 10091391
15:00+15зсз375936 0.1 10091591
18:00+14з486586 0.0 1009391
21:00+10з23845 0.1 101132